Location: Ernsee
(50.8780°N, 12.0389°E)
Time: 19:15:03
(UTC+00:00)

COSMO-SKYMED 1 - Pass Details

Date: 20 January 2020
Orbit: 621 x 623 km, 97.9° (Epoch: 21 February)

Event Time Altitude Azimuth Distance (km) Brightness Sun altitude
Rises 03:35:35 0° 144° (SE) 2,896 6.3 -32.3°
Reaches altitude 10° 03:37:51 10° 138° (SE) 1,994 5.5 -32.0°
Enters shadow 03:40:06 27° 119° (ESE) 1,207 4.4 -31.6°
